This is the latest recevied weather packets stored in our database for station/object OE3UKW. If no packets are shown the sender has not sent any weather packets the latest 10 day(s).
| Time | Temp. | Humidity | Pressure | Rain* | Wind** | Luminosity | Snow |
|---|---|---|---|---|---|---|---|
| 1777506669 | 3.89° C | 38% | 1030 hPa | 0 mm | - | 0 W/m² | - |
| 1777506069 | 3.89° C | 36% | 1030 hPa | 0 mm | - | 0 W/m² | - |
| 1777505469 | 3.89° C | 36% | 1030.1 hPa | 0 mm | - | 0 W/m² | - |
| 1777504870 | 4.44° C | 36% | 1030 hPa | 0 mm | - | 0 W/m² | - |
| 1777504269 | 4.44° C | 35% | 1030.1 hPa | 0 mm | - | 0 W/m² | - |
| 1777503669 | 4.44° C | 34% | 1030 hPa | 0 mm | - | 0 W/m² | - |
| 1777503069 | 5° C | 33% | 1030.1 hPa | 0 mm | - | 0 W/m² | - |
| 1777502469 | 5.56° C | 33% | 1030 hPa | 0 mm | - | 0 W/m² | - |
| 1777501869 | 5.56° C | 32% | 1030.1 hPa | 0 mm | - | 0 W/m² | - |
| 1777501269 | 5.56° C | 31% | 1030.1 hPa | 0 mm | - | 0 W/m² | - |
| 1777500669 | 6.11° C | 31% | 1029.9 hPa | 0 mm | - | 0 W/m² | - |
| 1777500069 | 6.11° C | 30% | 1030 hPa | 0 mm | - | 0 W/m² | - |
| 1777499473 | 6.11° C | 30% | 1029.6 hPa | 0 mm | - | 0 W/m² | - |
| 1777498873 | 6.11° C | 29% | 1029.5 hPa | 0 mm | - | 0 W/m² | - |
| 1777498273 | 6.67° C | 29% | 1029.4 hPa | 0 mm | - | 0 W/m² | - |
| 1777497673 | 6.67° C | 28% | 1029.3 hPa | 0 mm | - | 0 W/m² | - |
| 1777497073 | 6.67° C | 27% | 1029.1 hPa | 0 mm | - | 0 W/m² | - |
| 1777496473 | 6.67° C | 27% | 1028.9 hPa | 0 mm | - | 0 W/m² | - |
| 1777495873 | 7.22° C | 27% | 1028.9 hPa | 0 mm | - | 0 W/m² | - |
| 1777495273 | 7.22° C | 26% | 1028.8 hPa | 0 mm | - | 0 W/m² | - |
| 1777494673 | 7.22° C | 25% | 1028.7 hPa | 0 mm | - | 0 W/m² | - |
| 1777494073 | 7.22° C | 25% | 1028.6 hPa | 0 mm | - | 0 W/m² | - |
| 1777493473 | 7.78° C | 25% | 1028.6 hPa | 0 mm | - | 0 W/m² | - |
| 1777492873 | 7.78° C | 24% | 1028.3 hPa | 0 mm | - | 0 W/m² | - |
| 1777492273 | 7.78° C | 24% | 1028.1 hPa | 0 mm | - | 0 W/m² | - |
* Rain latest hour (hover to see other rain measurements)
** Current wind speed in m/s (hover to see current wind gust speed)